Location: Stanford
(52.2833°N, 2.4333°W)
Time: 01:59:07
(UTC+00:00)

Cosmos 1634 Rocket - Pass Details

Date: 22 January 2021
Orbit: 961 x 991 km, 82.9° (Epoch: 28 February)

Event Time Altitude Azimuth Distance (km) Brightness Sun altitude
Rises 17:12:24 0° 349° (N) 3,678 6.9 -5.3°
Reaches altitude 10° 17:14:54 10° 350° (N) 2,730 6.2 -5.7°
Maximum altitude 17:21:11 90° 251° (WSW) 986 4.1 -6.6°
Drops below altitude 10° 17:27:28 10° 172° (S) 2,733 6.6 -7.4°
Sets 17:29:59 0° 173° (S) 3,681 7.2 -7.8°
